Preview of NWS' New Version of Forecast
This preview is not operational and should not be used for support decisions.

Regional Weather Roundup (RWR)

Issued by National Weather Service (NWS)

                            
000
ASUS46 KSEW 222220
RWRWA 

WASHINGTON REGIONAL WEATHER ROUNDUP
NATIONAL WEATHER SERVICE SEATTLE WA
300 PM PDT SUN SEP 22 2019

NOTE:"FAIR" INDICATES FEW OR NO CLOUDS BELOW 12,000 FEET WITH NO 
SIGNIFICANT WEATHER AND/OR OBSTRUCTIONS TO VISIBILITY.

WAZ507-509-555>559-222300-
SEATTLE, TACOMA, EVERETT, AND VICINITY
  
CITY           SKY/WX    TMP DP  RH WIND       PRES   REMARKS
EVERETT        LGT RAIN  61  59  93 S16       29.86S                  
BOEING FIELD   LGT RAIN  63  60  90 S8        29.87R FOG              
RENTON         LGT RAIN  62  58  86 S8        29.86S FOG              
SEATAC AIRPORT LGT RAIN  62  59  90 S7        29.87S FOG              
JBLM-MCCHORD   CLOUDY    63  63 100 S5        29.87R                  
PUYALLUP       DRIZZLE   63  63 100 CALM      29.87S                  
BREMERTON      CLOUDY    61  59  93 S9        29.85F                  
JBLM-FT LEWIS  CLOUDY    64  64 100 S8        29.86R                  
TACOMA NARROWS CLOUDY    60  59  96 S5        29.87S                  
$$
 
WAZ001-503-506-510-514-515-222300-
NORTH INTERIOR
  
CITY           SKY/WX    TMP DP  RH WIND       PRES   REMARKS
BELLINGHAM     CLOUDY    64  57  78 S13G20    29.82S                  
FRIDAY HARBOR  CLOUDY    60  57  89 SE7       29.83R                  
EASTSOUND      CLOUDY    63  59  88 S13       29.81S                  
PORT ANGELES   CLOUDY    60  58  92 W5        29.85S                  
EDIZ HOOK      CLOUDY    59  58  98 W7        29.83S                  
PORT TOWNSEND  CLOUDY    63  59  88 CALM      29.82S                  
NAS WHIDBEY    CLOUDY    66  58  75 S16G23    29.86R                  
ARLINGTON      CLOUDY    63  60  90 S13       29.85S                  
BURLINGTON     CLOUDY    64  61  88 SE7       29.84S                  
$$
 
WAZ020-022-039-040-504-511-512-222300-
SOUTHWEST INTERIOR
  
CITY           SKY/WX    TMP DP  RH WIND       PRES   REMARKS
SHELTON        CLOUDY    63  59  87 S9        29.83R                  
OLYMPIA        LGT RAIN  63  60  90 S12       29.86S                  
CHEHALIS       DRIZZLE   63  63 100 S5        29.88R                  
KELSO          CLOUDY    64  60  87 S7        29.89R                  
VANCOUVER      CLOUDY    65  58  78 VRB3      29.89S                  
SCAPPOOSE, OR  LGT RAIN  64  60  87 CALM      29.88S                  
PORTLAND, OR   LGT RAIN  65  58  78 S9        29.90R                  
$$
 
WAZ021-516-517-222300-
WASHINGTON COAST
  
CITY           SKY/WX    TMP DP  RH WIND       PRES   REMARKS
FORKS          CLOUDY    60  55  83 W9        29.86S                  
HOQUIAM        CLOUDY    62  59  90 NW10      29.89R                  
ASTORIA, OR    CLOUDY    62  58  86 NW15      29.89R                  
$$
 
WAZ019-023-024-040-567>569-222300-
CASCADE MOUNTAINS AND COLUMBIA GORGE
  
CITY           SKY/WX    TMP DP  RH WIND       PRES   REMARKS
STAMPEDE PASS  LGT RAIN  53  49  86 VRB3      29.91F                  
TROUTDALE, OR  CLOUDY    65  58  78 VRB3      29.90S                  
HOOD RIVER, OR LGT RAIN  61  59  94 CALM      29.90S                  
THE DALLES, OR LGT RAIN  62  60  93 CALM      29.88S FOG              
$$

WAZ026-027-041>044-520-521-222300-
EAST SLOPES
  
CITY           SKY/WX    TMP DP  RH WIND       PRES   REMARKS
OMAK           CLOUDY    68  51  54 S10       29.83R                  
WENATCHEE      CLOUDY    63  50  62 N5        29.83F                  
ELLENSBURG     CLOUDY    68  51  54 NW5       29.84F                  
YAKIMA         LGT RAIN  67  53  61 CALM      29.84F                  
SUNNYSIDE ARPT LGT RAIN  68  56  66 S8        29.86R                  
YAKIMA TC      LGT RAIN  67  51  57 S13       29.83F                  
$$

WAZ028-034-035-222300-
COLUMBIA BASIN
  
CITY           SKY/WX    TMP DP  RH WIND       PRES   REMARKS
EPHRATA        CLOUDY    70  47  43 SW10      29.82F                  
MOSES LAKE     PTSUNNY   73  48  41 SW8       29.83F                  
PASCO          CLOUDY    77  49  37 W13       29.83R                  
RICHLAND ARPT  CLOUDY    77  50  38 SW9       29.82                   
HERMISTON, OR  CLOUDY    74  52  46 W10       29.84R                  
$$

WAZ036>038-222300-
NORTHEAST WASHINGTON
  
CITY           SKY/WX    TMP DP  RH WIND       PRES   REMARKS
SPOKANE GEIGER PTSUNNY   71  43  36 SW13      29.85F                  
SPOKANE FELTS  CLOUDY    74  44  34 SW10      29.84F                  
FAIRCHILD AFB  PTSUNNY   68  48  49 S13       29.86S                  
COEURDALENE,ID PTSUNNY   71  47  42 S5        29.86F                  
DEER PARK      PTSUNNY   73  48  41 VRB3      29.85F                  
$$

WAZ029>033-222300-
SOUTHEAST WASHINGTON
  
CITY           SKY/WX    TMP DP  RH WIND       PRES   REMARKS
PULLMAN        MOSUNNY   74  42  31 W8        29.88F                  
LEWISTON, ID   CLOUDY    83  44  25 NW8       29.80F                  
WALLA WALLA    CLOUDY    73  48  41 SW10      29.86R                  
PENDLETON, OR  CLOUDY    71  49  45 W14       29.86S                  
$$